OE3TEC-15 Weather Reports


time (UTC)temp
C
wind
direction
speed
KPH
gust
KPH
rain 1hr
cm
rain 24hr
cm
rain mn
cm
humidity
%
barometer
mb
20260503184324 19 131 3.2 9.7 0.00 0.00 0.00 40 1015.6
20260503183315 20 141 3.2 9.7 0.00 0.00 0.00 39 1015.6
20260503182310 20 119 4.8 11.3 0.00 0.00 0.00 38 1015.4
20260503181303 20 120 3.2 12.9 0.00 0.00 0.00 38 1015.4
20260503180255 20 123 4.8 12.9 0.00 0.00 0.00 37 1015.4
20260503175248 21 106 4.8 14.5 0.00 0.00 0.00 37 1015.4
20260503174240 21 99 6.4 17.7 0.00 0.00 0.00 36 1015.2
20260503173232 21 103 6.4 16.1 0.00 0.00 0.00 35 1015.1
20260503172226 22 104 9.7 24.1 0.00 0.00 0.00 35 1015.0
20260503171218 22 96 6.4 22.5 0.00 0.00 0.00 35 1014.9
20260503170211 22 99 8.0 29.0 0.00 0.00 0.00 35 1015.1
20260503160128 23 95 9.7 25.7 0.00 0.00 0.00 32 1015.1
20260503130926 25 90 11.3 25.7 0.00 0.00 0.00 34 1016.9
20260503110759 23 90 11.3 27.4 0.00 0.00 0.00 36 1018.5
20260503081605 18 79 11.3 25.7 0.00 0.00 0.00 45 1019.7
20260503080558 18 89 11.3 27.4 0.00 0.00 0.00 45 1019.7
20260503072528 17 120 8.0 17.7 0.00 0.00 0.00 50 1019.7
20260503071520 16 91 9.7 20.9 0.00 0.00 0.00 50 1019.9
20260503070514 16 96 11.3 24.1 0.00 0.00 0.00 52 1019.8
20260503054423 13 93 8.0 16.1 0.00 0.00 0.00 58 1019.7
20260503053418 12 82 4.8 12.9 0.00 0.00 0.00 61 1019.7
20260503052411 11 137 0.0 3.2 0.00 0.00 0.00 66 1019.7
20260503051403 10 142 0.0 3.2 0.00 0.00 0.00 65 1019.8
20260503050356 10 169 0.0 3.2 0.00 0.00 0.00 66 1019.8
20260503045348 8 135 1.6 3.2 0.00 0.00 0.00 70 1019.7
20260503044341 7 131 1.6 3.2 0.00 0.00 0.00 71 1019.8
20260503043335 6 167 0.0 3.2 0.00 0.00 0.00 77 1019.6
20260503042327 5 167 0.0 3.2 0.00 0.00 0.00 81 1019.7
20260503041320 4 203 0.0 3.2 0.00 0.00 0.00 83 1019.8
20260503040312 3 205 0.0 1.6 0.00 0.00 0.00 84 1019.6
20260503035306 3 206 0.0 1.6 0.00 0.00 0.00 83 1019.7
20260503034258 3 210 0.0 4.8 0.00 0.00 0.00 82 1019.7
20260503033250 4 192 0.0 4.8 0.00 0.00 0.00 83 1019.6
20260503032243 4 150 0.0 3.2 0.00 0.00 0.00 83 1019.5
20260503031236 4 212 1.6 4.8 0.00 0.00 0.00 80 1019.5
20260503030228 6 224 4.8 9.7 0.00 0.00 0.00 76 1019.4
20260503025223 5 227 3.2 6.4 0.00 0.00 0.00 80 1019.5
20260503024215 5 227 3.2 4.8 0.00 0.00 0.00 79 1019.4
20260503023208 5 224 3.2 4.8 0.00 0.00 0.00 82 1019.5
20260503022200 4 229 3.2 4.8 0.00 0.00 0.00 83 1019.4
20260503021154 3 217 1.6 4.8 0.00 0.00 0.00 86 1019.4
20260503020154 2 221 1.6 3.2 0.00 0.00 0.00 86 1019.4
20260503015147 3 214 0.0 1.6 0.00 0.00 0.00 85 1019.4
20260503014140 3 215 0.0 1.6 0.00 0.00 0.00 85 1019.5
20260503013134 3 216 0.0 1.6 0.00 0.00 0.00 83 1019.4
20260503012127 3 229 1.6 4.8 0.00 0.00 0.00 82 1019.3
20260503011119 5 229 3.2 4.8 0.00 0.00 0.00 81 1019.5
20260503010113 3 219 1.6 4.8 0.00 0.00 0.00 86 1019.5
20260503005105 3 213 0.0 1.6 0.00 0.00 0.00 83 1019.6
20260503004058 4 221 1.6 3.2 0.00 0.00 0.00 82 1019.6
20260503003050 3 216 1.6 3.2 0.00 0.00 0.00 84 1019.7
20260503002042 3 212 0.0 1.6 0.00 0.00 0.00 82 1019.8
20260503001035 4 213 0.0 1.6 0.00 0.00 0.00 82 1019.9
20260503000027 4 212 0.0 0.0 0.00 0.00 0.00 83 1019.8
20260502235020 4 212 0.0 3.2 0.00 0.00 0.00 81 1019.9
20260502234015 5 230 1.6 4.8 0.00 0.00 0.00 82 1020.0
20260502233007 5 216 0.0 0.0 0.00 0.00 0.00 81 1020.1
20260502232000 5 210 0.0 3.2 0.00 0.00 0.00 81 1020.1
20260502230953 5 212 0.0 3.2 0.00 0.00 0.00 81 1020.1
20260502225944 5 214 0.0 3.2 0.00 0.00 0.00 80 1020.3
20260502224937 5 217 0.0 1.6 0.00 0.00 0.00 80 1020.1
20260502223930 5 212 0.0 0.0 0.00 0.00 0.00 80 1020.1
20260502222923 5 207 0.0 0.0 0.00 0.00 0.00 77 1020.1
20260502221916 5 211 0.0 0.0 0.00 0.00 0.00 77 1020.3
20260502220907 5 211 0.0 0.0 0.00 0.00 0.00 77 1020.1
20260502215900 6 214 0.0 0.0 0.00 0.00 0.00 77 1020.3
20260502214854 5 214 0.0 0.0 0.00 0.00 0.00 77 1020.3
20260502213847 6 211 0.0 0.0 0.00 0.00 0.00 75 1020.4
20260502212840 6 214 0.0 0.0 0.00 0.00 0.00 75 1020.3
20260502211832 6 218 0.0 0.0 0.00 0.00 0.00 73 1020.3
20260502210825 6 209 0.0 0.0 0.00 0.00 0.00 74 1020.6
20260502205818 7 213 0.0 0.0 0.00 0.00 0.00 72 1020.5
20260502204809 7 213 0.0 0.0 0.00 0.00 0.00 71 1020.7
20260502203802 7 209 0.0 0.0 0.00 0.00 0.00 72 1020.5
20260502202755 7 212 0.0 1.6 0.00 0.00 0.00 71 1020.7
20260502201747 7 219 1.6 1.6 0.00 0.00 0.00 71 1020.7
20260502200740 7 207 0.0 1.6 0.00 0.00 0.00 70 1020.7
20260502195734 8 213 0.0 1.6 0.00 0.00 0.00 68 1020.7
20260502194727 8 212 0.0 1.6 0.00 0.00 0.00 67 1020.8
20260502193720 10 213 0.0 1.6 0.00 0.00 0.00 65 1020.9
20260502192712 9 219 1.6 3.2 0.00 0.00 0.00 65 1021.0
20260502191705 10 211 1.6 3.2 0.00 0.00 0.00 62 1021.0
20260502190656 10 231 1.6 3.2 0.00 0.00 0.00 63 1020.8
20260502185650 11 239 3.2 3.2 0.00 0.00 0.00 60 1020.6
20260502184643 11 237 3.2 4.8 0.00 0.00 0.00 61 1020.8